Flag for Germany Weather past 2 weeks in Lübeck, Schleswig-Holstein, Germany

Now
48 °F

Scattered clouds.


Feels Like: 46 °F
Forecast: 36 / 55 °F
Wind: 6 mph from North

Location: Luebeck-Blankensee

Current Time: Apr 18, 2015 at 11:09:42 AM

Latest Report: Apr 18, 2015 at 10:50 AM


Visibility: N/A

Pressure: 30.33 "Hg

Humidity: 62%

Dew point: 36 °F

Location of LübeckLocation

Historic Weather in Lübeck — Graph

°F

Lübeck temperature yesterday

Maximum temperature yesterday: 54 °F (at 1:50 PM)
Minimum temperature yesterday: 39 °F (at 6:50 AM)
Average temperature yesterday: 48 °F

Past Weeks' High & Low Weather Summary

 TemperatureHumidityPressure
High70 °F (Apr 11, 1:20 PM)100% (Apr 5, 6:50 AM)30.54 "Hg (Apr 5, 6:50 AM)
Low28 °F (Apr 7, 6:50 AM)32% (Apr 5, 12:20 PM)29.83 "Hg (Apr 15, 3:20 PM)
Average49 °F64%30.18 "Hg
* Reported Apr 3 9:20 AM — Apr 18 9:50 AM, Lübeck, Weather by CustomWeather, © 2015

Note: Actual official high and low records may vary slightly from our data, if they occured in-between our weather recording intervals... More about our weather records

Advertising

Lübeck weather history for previous 24 hours

 ConditionsComfort  
Time TempWeatherWind HumidityBarometerVisibility
9:50 AM
Sat, Apr 18
48 °FPassing clouds.6 mph62%30.33 "HgN/A
9:20 AM46 °FPassing clouds.5 mph71%30.33 "HgN/A
8:50 AM43 °FPassing clouds.3 mph87%30.33 "HgN/A
8:20 AM41 °FSunny.2 mph93%30.30 "Hg10 mi
7:50 AM37 °FSunny.2 mph100%30.30 "Hg10 mi
7:20 AM36 °FSunny.1 mph93%30.30 "Hg10 mi
6:50 AM34 °FFog.2 mph100%30.30 "HgN/A
10:50 PM
Fri, Apr 17
43 °FClear.6 mph76%30.18 "Hg10 mi
10:20 PM45 °FClear.9 mph71%30.15 "Hg10 mi
9:50 PM43 °FPassing clouds.6 mph71%30.15 "HgN/A
9:20 PM46 °FSunny.12 mph57%30.12 "Hg10 mi
8:50 PM46 °FPartly sunny.15 mph57%30.12 "HgN/A
8:20 PM48 °FPartly sunny.14 mph50%30.09 "HgN/A
7:50 PM48 °FSunny.13 mph54%30.09 "Hg10 mi
7:20 PM50 °FSunny.15 mph54%30.09 "Hg10 mi
6:50 PM52 °FPassing clouds.14 mph47%30.07 "HgN/A
6:20 PM52 °FPassing clouds.8 mph47%30.07 "HgN/A
5:50 PM52 °FSunny.8 mph47%30.07 "Hg10 mi
5:20 PM54 °FSunny.9 mph44%30.04 "Hg10 mi
4:50 PM54 °FPassing clouds.7 mph44%30.04 "HgN/A
4:20 PM50 °FPassing clouds.8 mph50%30.04 "HgN/A
3:50 PM52 °FSunny.8 mph47%30.04 "Hg10 mi
3:20 PM52 °FSunny.8 mph41%30.04 "Hg10 mi
2:50 PM54 °FSunny.9 mph38%30.04 "Hg10 mi
2:20 PM52 °FPassing clouds.8 mph38%30.04 "HgN/A
1:50 PM54 °FSunny.7 mph35%30.01 "Hg10 mi
1:20 PM52 °FScattered clouds.8 mph44%30.01 "HgN/A
12:50 PM52 °FPassing clouds.7 mph47%30.01 "HgN/A
12:20 PM50 °FSunny.6 mph47%30.01 "Hg10 mi
11:50 AM50 °FPassing clouds.6 mph54%30.01 "HgN/A
11:20 AM50 °FPassing clouds.7 mph58%30.01 "HgN/A
Weather by CustomWeather, © 2015

See weather overviewHow to use our weather pages